カタログに戻る

COSMOS 2251 DEB

運用中LEO
NORAD 36622·DEBRIS·🇷🇺 Russia

打ち上げ Jun 16, 1993 から Plesetsk Cosmodrome

Loading…

次のパス (今後24時間)

TLE

経年Source: Space-Track

元期: Sep 12, 2026, 13:02 UTC

1 36622U 93036BEL 26255.54354732  .00001718  00000-0  23379-3 0  9997
2 36622  74.0149 327.6166 0065247  32.1927 328.3205 14.78145117707933

AllMySatでCOSMOS 2251 DEBをリアルタイム追跡

Download on the App Store